Погода в Гагарине

Россия / Тульская область     53°42′31″N   38°23′03″E
темп.,
°C
ветер,
м/с
пор.,
м/с
влажн.,
%
обл.,
%
осадки,
мм/ч
давл.,
гПа
погр.,
м
20 июня, вс
вс2000:00+17ююв22870 0.0 102411
03:00+16ю12900 0.0 102511
06:00+18ююв22880 0.0 102486
09:00+22юв23690 0.0 1024490
12:00+24юв34570 0.0 1024931
15:00+25ююв34555 0.0 10221170
18:00+25юв236712 0.0 10211110
21:00+20вюв228671 0.0 102219
21 июня, пн
пн2100:00+18ююв2287100 0.0 102215
03:00+17юв2289100 0.0 102215
06:00+18вюв2487100 0.0 1022109
09:00+23вюв45725 0.0 1022450
12:00+26юв456030 0.0 1022880
15:00+27юв4558100 0.0 10211094
18:00+26вюв467160 0.0 1020476
21:00+21вюв3486100 0.0 102168
22 июня, вт
вт2200:00+19юв3588100 0.0 102183
03:00+18юв239387 0.0 102237
06:00+20юв35895 0.0 1022149
09:00+24юв45715 0.0 1022410
12:00+27юв45595 0.0 1022906
15:00+29юв44545 0.0 10211208
18:00+27вюв356999 0.0 1021238
21:00+22юв338116 0.0 102128
23 июня, ср
ср2300:00+20юв22820 0.0 102116
03:00+19в22840 0.0 102215
06:00+20в23830 0.0 102277
09:00+25в34700 0.0 1021402
12:00+28в44555 0.0 10211022
15:00+29в33515 0.0 10211255
18:00+29в23646 0.0 1020313
21:00+23в22815 0.0 102114
24 июня, чт
чт2400:00+22вюв11865 0.0 102111
03:00+20всв229069 0.0 102115
06:00+22вюв128671 0.0 102178
09:00+26в22695 0.0 1021409
12:00+29в22585 0.0 10211127
15:00+30в11515 0.0 10201633
18:00+30с01595 0.0 10201734
21:00+25в00711 0.0 101911